CZ-3B DEB, 52965

Orbit data source: Space-Track

CZ-3B DEB, 52965 is space debris in HEO originally from a launch on Sat, 04 Sep 2010 UTC launched from the Xichang Space Center, China (XSC). Debris objects in space refer to the collection of defunct objects orbiting the Earth. Examples of debris include non-operational satellites, rocket bodies, and fragments generated from explosions, collisions, or faulty payload assembly.

Loading next visibility...
Identifier
52965, 2010-042AJ
Orbit
HEO
Last TLE update
3 months ago
Origin
Manufacturer
CALT
Mission
Spacecraft
Bus & Motor
Unknown
Mass
Unknown
Launch date (UTC)
2010-09-04 (15 years ago)
Launch vehicle
Unknown
Launch site
Xichang Space Center, China (XSC)
Object type
Payload
Rocket body
Debris
Shape & HBR
Unknown
Radar Cross Section
Small (<0.1 m²)

Expand to show TLE details & history

TLE from 3 months ago
0 CZ-3B DEB
1 52965U 10042AJ  25034.26342965 -.00000810  00000-0 -63790-1 0  9992
2 52965  25.0343 354.8954 7418474 274.8715  12.4385  1.82724649 19166
Epoch: 2025-02-03T06:19Z
Definitive object data (Epoch: 2025-02-03T06:19:20.321Z)
Latitude
-0.00014°
Longitude
126.36417°
Altitude
5,573.224 km
Speed
7.252 km/s
True Right ascension
23h 39m 32s
True Declination
0° 00' 01"
Sunlit
Object was in daylight at TLE epoch
Visualization TLE readout
Latitude
14.34604°
Longitude
-109.8705°
Altitude
40,973.511 km
Speed
1.655 km/s
Apparent Right ascension
07h 32m 12s
Apparent Declination
9° 07' 19"
Sunlit
Object is in daylight
Visualization observer readout
Local Sidereal Time
15:08:24
Azimuth
292.84° NW
Elevation
-11.938°
Doppler factor
1
Orbital elements
Apogee altitude
42,856.666 km
Perigee altitude
918.767 km
Semi-major axis
28,265.854 km
Eccentricity
0.7418474
Inclination
25.0343°
RAAN
354.8954°
Arg. of periapsis
274.8715°
True anomaly
85.91412°
Mean anomaly
12.4385°
Eccentric anomaly
39.4411°
Mean motion
0.45672 °/min
BSTAR
-0.06379
Orbital period
788.23 mins
Loading maneuver chart data...
Loading SW <> Apogee altitude chart data...
Loading historical data...
Loading historical data...
Loading historical data...
Loading historical data...
Loading historical data...
Loading historical data...
Loading historical data...

CZ-3B DEB Visibility forecast

Observer location: undefined°, undefined°

Span
Click to sort rows by Start time (UTC) header in descending order
Start Az.
Max El. time (UTC)
Max El. Az.
Max El.
End time (UTC)
End Az.
446 mins2025-05-09 16:46:28.701Z77.686° E2025-05-09 22:03:28.701Z121.247° SE30.253°2025-05-10 00:12:28.701Z131.046° SE
|